Skip Page Navigation
NASA JPL Caltech
NASA Logo - Jet Propulsion Laboratory + View the NASA Portal
+ Center for Near-Earth Object Studies
JPL Home Earth Solar System Stars & Galaxies Technology
JPL Solar System Dynamics
BODIES ORBITS EPHEMERIDES TOOLS PHYSICAL DATA DISCOVERY FAQ SITE MAP
JPL Small-Body Database Browser
Search: [ help ]  
899 Jokaste (A918 PH)
Classification: Main-belt Asteroid          SPK-ID: 2000899
Ephemeris | Orbit Diagram | Orbital Elements | Mission Design | Physical Parameters | Discovery Circumstances | Close-Approach Data ]

[ show orbit diagram ]
Orbital Elements at Epoch 2459000.5 (2020-May-31.0) TDB
Reference: JPL 35 (heliocentric ecliptic J2000)
 Element Value Uncertainty (1-sigma)   Units 
e .2010626784842115 3.6857e-08  
a 2.90597099967886 1.0987e-08 au
q 2.321688686885987 1.0763e-07 au
i 12.46762474742777 4.0406e-06 deg
node 252.4185599649533 1.8538e-05 deg
peri 127.5178471776392 2.1494e-05 deg
M 148.5411660619168 1.3148e-05 deg
tp 2458253.914297307834
(2018-May-15.41429731)
6.3803e-05 TDB
period 1809.403144560931
4.95
1.0262e-05
2.81e-08
d
yr
n .1989606357666397 1.1284e-09 deg/d
Q 3.490253312471733 1.3196e-08 au
  Orbit Determination Parameters
   # obs. used (total)      2557  
   data-arc span      37208 days (101.87 yr)  
   first obs. used      1918-08-03  
   last obs. used      2020-06-16  
   planetary ephem.      DE431  
   SB-pert. ephem.      SB431-N16  
   condition code      0  
   norm. resid. RMS      .4118  
   source      ORB  
   producer      Otto Matic  
   solution date      2020-Jun-23 15:22:27  

Additional Information
 Earth MOID = 1.34956 au 
 Jupiter MOID = 2.07063 au 
 T_jup = 3.220 
[ show covariance matrix ]

Ephemeris | Orbit Diagram | Orbital Elements | Mission Design | Physical Parameters | Discovery Circumstances | Close-Approach Data ]

Physical Parameter Table
Parameter Symbol Value Units Sigma Reference Notes
absolute magnitude H 10.1   n/a MPO502161 IRAS observations used: 20
diameter diameter 31.018 km 0.243 urn:nasa:pds:neowise_diameters_albedos::2.0[mainbelt] (http://adsabs.harvard.edu/abs/2014ApJ...791..121M)  
rotation period rot_per 6.245 h n/a LCDB (Rev. 2019-August); Warner et al., 2009 Published Reference List:
[Stephens, R.D. (2004) Minor Planet Bull. 31, 40-41.]
[Menke, J. (2005) Minor Planet Bull. 32, 85-88.]
[Clark, M. (2006) Minor Planet Bull. 33, 53-56.]
[Hanus, J.; Durech, J.; Broz, M.; Warner, B.D.; et al. (2011) Astron. Astrophys. 530, A134.]
[Bowens-Rubin, R.; Henderson, P. (2014) Minor Planet Bull. 41, 58-59.]
geometric albedo albedo 0.161   0.027 urn:nasa:pds:neowise_diameters_albedos::2.0[mainbelt] (http://adsabs.harvard.edu/abs/2014ApJ...791..121M)  
B-V BV 0.676   0.027 EAR-A-5-DDR-UBV-MEAN-VALUES-V1.2 #obs=4; phase (min.=3.18, mean=5.72, max.=12.70) deg.
U-B UB 0.255   0.038 EAR-A-5-DDR-UBV-MEAN-VALUES-V1.2 #obs=4; phase (min.=3.18, mean=5.72, max.=12.70) deg.
Tholen spectral type spec_T XB   n/a EAR-A-5-DDR-TAXONOMY-V4.0 used 2 color indices

899 Jokaste (A918 PH)          Discovered 1918-Aug-03 by Wolf, M. at Heidelberg
Reference: DISCOVERY.DBLast Updated: 2003-08-29

[ show close-approach data ]
Alternate Designations
 A918 PH = 1953 TL2 
Ephemeris | Orbit Diagram | Orbital Elements | Mission Design | Physical Parameters | Discovery Circumstances | Close-Approach Data ]
ABOUT SSD CREDITS/AWARDS PRIVACY/COPYRIGHT GLOSSARY LINKS
FirstGov 2020-Oct-24 13:09 UT
(server date/time)  
NASA Home Page
Site Manager:   Ryan S. Park
Webmaster  Alan B. Chamberlin